Location: Houston
(29.7630°N, 95.3630°W)
Time: 08:57:23
(UTC-05:00)

Amateur Radio Satellites - All Passes

Search period start: 28 March 2017 08:27
Search period end: 29 March 2017 08:27
Location: Houston, 29.7630°N, 95.3630°W

Satellite Date Start Highest point End Downlink Frequencies (MHz)
Time Altitude Azimuth
XW-2F 28 Mar 08:28:17 08:30:20 14° 289° (WNW) 08:32:22 145.980 - 146.000
XW-2A 28 Mar 08:29:33 08:32:53 60° 101° (E) 08:36:09 145.665 - 145.685
PCSat 28 Mar 08:32:54 08:36:18 17° 105° (ESE) 08:39:43 145.827
LilacSat-2 28 Mar 08:33:45 08:35:02 11° 290° (WNW) 08:36:20 437.200
CUTE 1.7 + AOD 2 28 Mar 08:34:10 08:38:17 52° 100° (E) 08:42:25 437.475
CUBEBUG 2 28 Mar 08:36:41 08:39:59 21° 95° (E) 08:43:13 437.445
HO-68 28 Mar 08:45:33 08:52:41 68° 103° (ESE) 08:59:49 435.675
BEESAT 3 28 Mar 09:03:56 09:07:06 23° 250° (WSW) 09:10:15 437.485
AO-73 28 Mar 09:04:23 09:06:00 12° 94° (E) 09:07:36 145.935
BEESAT 2 28 Mar 09:23:15 09:27:01 38° 248° (WSW) 09:30:44 435.950
UWE-3 28 Mar 09:34:34 09:38:48 69° 102° (ESE) 09:42:55 435.000/436.395/437.385
UNISAT 6 28 Mar 09:35:56 09:37:43 12° 68° (ENE) 09:39:29 437.425
AAUSAT CUBESAT 2 28 Mar 09:37:55 09:42:04 86° 282° (WNW) 09:46:14 437.432
PRISM 28 Mar 09:46:02 09:49:35 30° 73° (ENE) 09:53:10 437.425
JUGNU 28 Mar 09:49:41 09:54:49 31° 182° (S) 09:59:59 437.505
Oscar 11 28 Mar 09:59:52 10:04:06 57° 100° (E) 10:08:20 .
SEEDS 28 Mar 10:00:10 10:03:15 20° 288° (WNW) 10:06:19 437.485
SRMSAT 28 Mar 10:07:57 10:12:45 25° 169° (S) 10:17:34 437.500
ZACube-1 28 Mar 10:10:58 10:15:09 75° 283° (WNW) 10:19:15 437.345
CUBEBUG 2 28 Mar 10:13:09 10:16:28 22° 289° (WNW) 10:19:43 437.445
PCSat 28 Mar 10:14:05 10:19:14 46° 297° (WNW) 10:24:27 145.827
FO-29 28 Mar 10:22:07 10:29:06 37° 70° (ENE) 10:35:46 435.910
YUBILEINY 28 Mar 10:25:31 10:29:33 14° 291° (WNW) 10:33:36 435.215
HO-68 28 Mar 10:35:07 10:39:41 18° 297° (WNW) 10:44:16 435.675
AO-73 28 Mar 10:38:31 10:42:20 36° 286° (WNW) 10:46:06 145.935
DELFI C3 28 Mar 10:40:07 10:43:59 46° 100° (E) 10:47:49 145.870
TIGRISAT 28 Mar 10:58:23 11:03:05 77° 259° (W) 11:07:47 435.000
UNISAT 6 28 Mar 11:09:20 11:13:54 52° 260° (W) 11:18:28 437.425
AIST 2D 28 Mar 11:17:06 11:19:18 16° 72° (ENE) 11:21:30 435.315
EO-79 28 Mar 11:18:22 11:19:20 11° 68° (ENE) 11:20:16 145.935-145.965
PRISM 28 Mar 11:22:42 11:24:52 14° 265° (W) 11:27:02 437.425
JUGNU 28 Mar 11:38:46 11:43:22 23° 192° (SSW) 11:47:59 437.505
LO-87 28 Mar 11:39:14 11:42:07 22° 97° (E) 11:44:59 145.935 - 145.965
POLYITAN 1 28 Mar 11:44:26 11:47:52 24° 72° (ENE) 11:51:18 437.675
QB50P2 28 Mar 11:48:52 11:52:33 29° 73° (ENE) 11:56:16 145.880/145.840
SRMSAT 28 Mar 11:56:14 12:01:29 32° 179° (S) 12:06:46 437.500
DUCHIFAT 1 28 Mar 11:57:57 12:01:34 28° 72° (ENE) 12:05:11 145.980
FO-29 28 Mar 12:06:42 12:13:52 38° 262° (W) 12:20:48 435.910
BUGSAT 1 28 Mar 12:08:44 12:09:37 11° 68° (ENE) 12:10:30 437.445
RS-15 28 Mar 12:32:18 12:43:55 66° 111° (ESE) 12:56:01 29.354- 29.394
SPROUT 28 Mar 12:35:35 12:37:13 12° 94° (E) 12:38:50 437.525
ESTCUBE 1 28 Mar 12:37:04 12:41:32 64° 101° (E) 12:46:01 437.505/2401.250
NANOSAT C BR1 28 Mar 12:44:27 12:48:40 63° 259° (W) 12:52:54 145.865
AIST 2D 28 Mar 12:49:41 12:52:19 19° 264° (W) 12:54:57 435.315
EO-79 28 Mar 12:50:29 12:54:35 47° 260° (W) 12:58:44 145.935-145.965
DX 1 28 Mar 13:12:23 13:14:53 15° 95° (E) 13:17:22 434.975-435.025
LO-87 28 Mar 13:13:11 13:15:20 15° 289° (WNW) 13:17:28 145.935 - 145.965
POLYITAN 1 28 Mar 13:20:18 13:23:31 21° 264° (W) 13:26:45 437.675
QB50P2 28 Mar 13:25:34 13:28:19 17° 265° (W) 13:31:03 145.880/145.840
JUGNU 28 Mar 13:29:54 13:31:50 12° 200° (SSW) 13:33:46 437.505
Oscar 19 28 Mar 13:32:00 13:36:32 33° 72° (ENE) 13:41:06 437.125/150
DUCHIFAT 1 28 Mar 13:34:22 13:37:11 17° 265° (W) 13:40:00 145.980
BUGSAT 1 28 Mar 13:40:24 13:44:28 47° 260° (W) 13:48:34 437.445
VELOX 1 28 Mar 13:40:32 13:45:01 83° 281° (W) 13:49:27 145.980
SRMSAT 28 Mar 13:45:17 13:50:14 27° 189° (S) 13:55:11 437.500
UKube-1 28 Mar 13:47:08 13:50:49 27° 98° (E) 13:54:29 .
50 SAT 28 Mar 13:57:02 14:00:32 70° 283° (WNW) 14:04:01 437.505
Gurwin Techsat 1B 28 Mar 14:02:55 14:07:47 38° 72° (ENE) 14:12:41 435.225
NO-84 28 Mar 14:06:05 14:08:32 19° 45° (NE) 14:11:06 435.350 FM
SPROUT 28 Mar 14:09:14 14:13:13 39° 286° (WNW) 14:17:11 437.525
SO-50 28 Mar 14:34:36 14:39:17 82° 116° (ESE) 14:43:54 436.795
RS-15 28 Mar 14:46:44 14:57:09 33° 311° (NW) 15:07:56 29.354- 29.394
DX 1 28 Mar 14:47:07 14:51:05 34° 287° (WNW) 14:55:02 434.975-435.025
ITUPSAT 1 28 Mar 15:01:08 15:02:14 11° 94° (E) 15:03:21 437.325
Oscar 19 28 Mar 15:12:03 15:15:50 21° 264° (W) 15:19:38 437.125/150
ITAMSAT 1 28 Mar 15:23:24 15:28:08 36° 72° (ENE) 15:32:54 435.822/435.867
UKube-1 28 Mar 15:23:34 15:26:36 19° 290° (WNW) 15:29:38 .
SRMSAT 28 Mar 15:35:36 15:38:52 15° 198° (SSW) 15:42:09 437.500
NO-84 28 Mar 15:43:10 15:46:01 25° 235° (SW) 15:49:05 435.350 FM
AO-7 28 Mar 15:43:35 15:51:41 59° 69° (ENE) 15:59:47 .
Gurwin Techsat 1B 28 Mar 15:44:01 15:47:46 19° 265° (W) 15:51:31 435.225
MOZHAYETS 4 28 Mar 16:15:30 16:19:37 33° 98° (E) 16:23:42
BEESAT 28 Mar 16:17:47 16:22:33 85° 282° (WNW) 16:27:17 436.000
ITUPSAT 1 28 Mar 16:35:38 16:40:16 54° 286° (WNW) 16:44:53 437.325
ITAMSAT 1 28 Mar 17:03:50 17:07:36 20° 264° (W) 17:11:23 435.822/435.867
O/OREOS (USA 219) 28 Mar 17:08:08 17:12:37 74° 288° (WNW) 17:17:10 437.305
CUBESAT XI-V 28 Mar 17:14:06 17:17:43 22° 96° (E) 17:21:21 437.345
KKS-1 28 Mar 17:17:15 17:21:13 31° 98° (E) 17:25:09 437.445
AO-7 28 Mar 17:38:20 17:44:41 24° 262° (W) 17:51:04 .
STARS 28 Mar 17:47:08 17:50:55 28° 98° (E) 17:54:40 437.465
MOZHAYETS 4 28 Mar 17:53:33 17:56:28 17° 290° (WNW) 17:59:22
XW-2D 28 Mar 17:56:51 17:58:49 14° 71° (ENE) 18:00:47 145.860 - 145.880
KAITUO 1B 28 Mar 17:59:25 18:00:18 11° 70° (ENE) 18:01:10 145.475/437.950
XW-2B 28 Mar 18:02:27 18:04:47 16° 71° (ENE) 18:07:07 145.730 - 145.750
XW-2C 28 Mar 18:12:04 18:15:01 22° 73° (ENE) 18:17:57 145.795 - 145.815
YUBILEINY 28 Mar 18:41:28 18:49:05 33° 77° (ENE) 18:56:39 435.215
CUBESAT XI-V 28 Mar 18:51:07 18:54:58 26° 288° (WNW) 18:58:50 437.345
DOVE 4 28 Mar 18:51:24 18:55:59 78° 260° (W) 19:00:54 437.250
KKS-1 28 Mar 18:54:30 18:57:29 18° 291° (WNW) 19:00:27 437.445
M-CUBED/EXP-1 PRIME 28 Mar 18:57:07 19:00:31 20° 100° (E) 19:03:50 437.505
XW-2F 28 Mar 19:01:23 19:05:10 75° 259° (W) 19:08:57 145.980 - 146.000
LilacSat-2 28 Mar 19:07:06 19:10:52 55° 260° (W) 19:14:37 437.200
PCSat 28 Mar 19:07:55 19:12:59 39° 61° (ENE) 19:18:01 145.827
CUTE-I 28 Mar 19:08:21 19:13:43 79° 257° (WSW) 19:19:07 437.470
HO-68 28 Mar 19:08:36 19:14:20 27° 66° (ENE) 19:20:05 435.675
NUDT-PHONESAT 28 Mar 19:19:55 19:23:33 48° 260° (W) 19:27:11 437.300
CUTE 1.7 + AOD 2 28 Mar 19:21:57 19:24:41 17° 71° (ENE) 19:27:25 437.475
STARS 28 Mar 19:23:55 19:27:00 19° 290° (WNW) 19:30:05 437.465
XW-2D 28 Mar 19:29:27 19:32:44 27° 263° (W) 19:35:59 145.860 - 145.880
KAITUO 1B 28 Mar 19:30:31 19:33:56 34° 261° (W) 19:37:22 145.475/437.950
CUBEBUG 2 28 Mar 19:30:59 19:31:58 11° 67° (ENE) 19:32:57 437.445
RS-15 28 Mar 19:33:28 19:37:10 12° 25° (NNE) 19:40:50 29.354- 29.394
XW-2B 28 Mar 19:35:39 19:38:45 23° 263° (W) 19:41:51 145.730 - 145.750
XW-2C 28 Mar 19:46:33 19:49:06 17° 264° (W) 19:51:38 145.795 - 145.815
Tancredo 1 28 Mar 19:52:38 19:55:44 67° 313° (NW) 19:58:53 437.200
ISS 28 Mar 20:03:31 20:06:43 59° 315° (NW) 20:09:55 437.550
AO-85 28 Mar 20:16:17 20:20:42 46° 114° (ESE) 20:24:49 145.980
AAUSAT CUBESAT 2 28 Mar 20:22:22 20:25:48 26° 73° (ENE) 20:29:13 437.432
UWE-3 28 Mar 20:25:19 20:29:16 28° 73° (ENE) 20:33:10 435.000/436.395/437.385
XW-2A 28 Mar 20:27:27 20:30:40 38° 261° (W) 20:33:56 145.665 - 145.685
M-CUBED/EXP-1 PRIME 28 Mar 20:30:43 20:34:52 32° 292° (WNW) 20:38:58 437.505
YUBILEINY 28 Mar 20:37:50 20:45:49 42° 272° (W) 20:53:49 435.215
STRAND 1 28 Mar 20:39:52 20:44:59 78° 103° (ESE) 20:50:03 437.568
SEEDS 28 Mar 20:44:29 20:48:36 64° 259° (W) 20:52:44 437.485
Oscar 11 28 Mar 20:49:23 20:52:35 20° 71° (ENE) 20:55:46 .
PCSat 28 Mar 20:52:07 20:56:02 20° 255° (WSW) 20:59:56 145.827
HO-68 28 Mar 20:54:54 21:01:41 46° 259° (W) 21:08:29 435.675
CUTE 1.7 + AOD 2 28 Mar 20:56:40 21:00:16 27° 263° (W) 21:03:51 437.475
ZACube-1 28 Mar 21:00:13 21:04:27 39° 74° (ENE) 21:08:38 437.345
CUBEBUG 2 28 Mar 21:03:18 21:08:00 60° 260° (W) 21:12:41 437.445
BEESAT 3 28 Mar 21:11:47 21:13:50 14° 108° (ESE) 21:15:52 437.485
DELFI C3 28 Mar 21:21:57 21:23:19 12° 69° (ENE) 21:24:42 145.870
AO-73 28 Mar 21:26:49 21:31:21 76° 76° (ENE) 21:35:49 145.935
RS-15 28 Mar 21:42:41 21:54:11 44° 54° (NE) 22:05:07 29.354- 29.394
AAUSAT CUBESAT 2 28 Mar 21:58:35 22:01:11 16° 265° (W) 22:03:49 437.432
AO-85 28 Mar 21:59:05 22:01:12 13° 306° (NW) 22:03:17 145.980
UWE-3 28 Mar 22:02:05 22:05:36 21° 264° (W) 22:09:07 435.000/436.395/437.385
Oscar 11 28 Mar 22:25:01 22:28:31 24° 263° (W) 22:32:02 .
ZACube-1 28 Mar 22:38:23 22:40:46 14° 266° (W) 22:43:09 437.345
BEESAT 3 28 Mar 22:47:36 22:51:04 31° 301° (WNW) 22:54:37 437.485
DELFI C3 28 Mar 22:54:09 22:57:44 34° 262° (W) 23:01:20 145.870
TIGRISAT 28 Mar 22:56:29 23:00:25 33° 98° (E) 23:04:17 435.000
UNISAT 6 28 Mar 23:07:13 23:11:28 51° 100° (E) 23:15:36 437.425
PRISM 28 Mar 23:07:40 23:11:47 66° 285° (WNW) 23:15:55 437.425
BEESAT 2 28 Mar 23:08:31 23:12:19 50° 299° (WNW) 23:16:13 435.950
SO-50 28 Mar 23:13:10 23:15:42 15° 52° (NE) 23:18:12 436.795
FO-29 28 Mar 23:24:05 23:29:24 42° 98° (E) 23:34:19 435.910
ESTCUBE 1 28 Mar 23:30:59 23:34:45 27° 72° (ENE) 23:38:31 437.505/2401.250
LO-87 28 Mar 23:41:44 23:45:19 82° 78° (ENE) 23:48:56 145.935 - 145.965
RS-15 28 Mar 23:55:20 00:06:35 47° 253° (WSW) 00:17:19 29.354- 29.394
AIST 2D 29 Mar 00:19:47 00:23:07 42° 99° (E) 00:26:24 435.315
50 SAT 29 Mar 00:25:56 00:27:58 15° 71° (ENE) 00:29:59 437.505
VELOX 1 29 Mar 00:31:44 00:35:49 39° 73° (ENE) 00:39:55 145.980
TIGRISAT 29 Mar 00:34:21 00:36:46 15° 291° (WNW) 00:39:09 435.000
NANOSAT C BR1 29 Mar 00:35:00 00:38:45 31° 98° (E) 00:42:27 145.865
UKube-1 29 Mar 00:38:09 00:39:18 11° 67° (ENE) 00:40:27 .
EO-79 29 Mar 00:41:04 00:45:04 41° 99° (E) 00:49:01 145.935-145.965
SO-50 29 Mar 00:52:03 00:56:19 45° 247° (WSW) 01:00:36 436.795
SPROUT 29 Mar 00:55:52 01:00:07 68° 77° (ENE) 01:04:24 437.525
ESTCUBE 1 29 Mar 01:08:16 01:11:28 19° 264° (W) 01:14:41 437.505/2401.250
POLYITAN 1 29 Mar 01:09:51 01:14:04 80° 285° (WNW) 01:18:15 437.675
FO-29 29 Mar 01:10:22 01:14:02 18° 295° (WNW) 01:17:30 435.910
QB50P2 29 Mar 01:14:39 01:18:50 62° 284° (WNW) 01:22:58 145.880/145.840
DUCHIFAT 1 29 Mar 01:22:40 01:26:50 67° 284° (WNW) 01:30:58 145.980
BUGSAT 1 29 Mar 01:28:13 01:32:03 36° 99° (E) 01:35:49 437.445
DX 1 29 Mar 01:35:52 01:40:12 89° 257° (WSW) 01:44:35 434.975-435.025
Oscar 19 29 Mar 01:50:09 01:53:50 20° 96° (E) 01:57:32 437.125/150
50 SAT 29 Mar 01:58:15 02:00:47 19° 263° (W) 02:03:21 437.505
VELOX 1 29 Mar 02:10:18 02:12:21 13° 266° (W) 02:14:23 145.980
UKube-1 29 Mar 02:10:42 02:14:50 47° 260° (W) 02:19:00 .
NANOSAT C BR1 29 Mar 02:11:41 02:14:08 15° 291° (WNW) 02:16:35 145.865
EO-79 29 Mar 02:18:53 02:20:23 12° 292° (WNW) 02:21:53 145.935-145.965
Gurwin Techsat 1B 29 Mar 02:25:34 02:29:55 25° 97° (E) 02:34:13 435.225
BUGSAT 1 29 Mar 03:05:15 03:07:00 12° 292° (WNW) 03:08:44 437.445
MOZHAYETS 4 29 Mar 03:12:31 03:15:23 17° 69° (ENE) 03:18:15
BEESAT 29 Mar 03:17:56 03:22:36 55° 74° (ENE) 03:27:15 436.000
O/OREOS (USA 219) 29 Mar 03:24:07 03:28:44 78° 73° (ENE) 03:33:17 437.305
Oscar 19 29 Mar 03:28:27 03:33:10 36° 288° (WNW) 03:37:52 437.125/150
ITUPSAT 1 29 Mar 03:35:54 03:40:41 87° 80° (E) 03:45:30 437.325
ITAMSAT 1 29 Mar 03:42:56 03:46:48 21° 96° (E) 03:50:38 435.822/435.867
AO-7 29 Mar 03:52:53 03:59:40 27° 98° (E) 04:06:24 .
Tancredo 1 29 Mar 03:59:29 04:02:41 85° 52° (NE) 04:05:52 437.200
Gurwin Techsat 1B 29 Mar 04:05:10 04:09:45 30° 289° (WNW) 04:14:18 435.225
KKS-1 29 Mar 04:10:48 04:13:10 14° 68° (ENE) 04:15:32 437.445
ISS 29 Mar 04:12:09 04:15:27 79° 229° (SW) 04:18:43 437.550
CUBESAT XI-V 29 Mar 04:13:54 04:15:07 11° 67° (ENE) 04:16:20 437.345
STARS 29 Mar 04:39:39 04:41:27 12° 68° (ENE) 04:43:16 437.465
MOZHAYETS 4 29 Mar 04:48:01 04:52:13 35° 262° (W) 04:56:24
BEESAT 29 Mar 04:59:29 05:00:35 11° 266° (W) 05:01:40 436.000
NO-84 29 Mar 05:19:35 05:22:08 25° 125° (SE) 05:24:35 435.350 FM
ITAMSAT 1 29 Mar 05:21:36 05:26:14 34° 289° (WNW) 05:30:51 435.822/435.867
AO-7 29 Mar 05:44:37 05:52:33 52° 292° (WNW) 06:00:29 .
KKS-1 29 Mar 05:45:10 05:49:19 39° 261° (W) 05:53:31 437.445
CUBESAT XI-V 29 Mar 05:47:30 05:51:58 53° 260° (W) 05:56:27 437.345
JUGNU 29 Mar 05:58:58 06:02:41 17° 164° (SSE) 06:06:24 437.505
STARS 29 Mar 06:13:08 06:17:20 44° 260° (W) 06:21:35 437.465
AO-85 29 Mar 06:33:02 06:37:00 82° 244° (WSW) 06:41:10 145.980
XW-2F 29 Mar 06:40:34 06:42:58 16° 96° (E) 06:45:22 145.980 - 146.000
LilacSat-2 29 Mar 06:46:44 06:49:43 22° 97° (E) 06:52:42 437.200
DOVE 4 29 Mar 06:56:15 07:01:22 50° 99° (E) 07:06:17 437.250
NUDT-PHONESAT 29 Mar 06:56:52 06:59:45 22° 97° (E) 07:02:39 437.300
NO-84 29 Mar 06:58:11 06:59:38 13° 317° (NW) 07:01:04 435.350 FM
XW-2D 29 Mar 07:07:22 07:10:57 43° 99° (E) 07:14:30 145.860 - 145.880
KAITUO 1B 29 Mar 07:07:32 07:10:51 31° 98° (E) 07:14:10 145.475/437.950
BEESAT 3 29 Mar 07:10:06 07:13:11 21° 56° (ENE) 07:16:14 437.485
M-CUBED/EXP-1 PRIME 29 Mar 07:10:40 07:14:15 63° 256° (WSW) 07:18:07 437.505
XW-2B 29 Mar 07:13:20 07:16:58 50° 100° (E) 07:20:37 145.730 - 145.750
XW-2C 29 Mar 07:23:34 07:27:18 75° 101° (E) 07:31:02 145.795 - 145.815
CUTE-I 29 Mar 07:31:37 07:36:56 70° 102° (ESE) 07:42:14 437.470
BEESAT 2 29 Mar 07:32:57 07:35:14 15° 54° (NE) 07:37:31 435.950
YUBILEINY 29 Mar 07:34:18 07:42:30 46° 89° (E) 07:50:39 435.215
JUGNU 29 Mar 07:46:12 07:51:09 28° 173° (S) 07:56:07 437.505
STRAND 1 29 Mar 07:49:34 07:54:36 59° 75° (ENE) 07:59:40 437.568
XW-2A 29 Mar 07:55:57 07:58:14 17° 96° (E) 08:00:29 145.665 - 145.685
PCSat 29 Mar 08:04:09 08:05:37 11° 103° (ESE) 08:07:06 145.827
SRMSAT 29 Mar 08:08:00 08:11:10 15° 162° (SSE) 08:14:20 437.500
XW-2F 29 Mar 08:14:09 08:16:59 21° 287° (WNW) 08:19:51 145.980 - 146.000
LilacSat-2 29 Mar 08:21:25 08:23:47 16° 288° (WNW) 08:26:09 437.200
